Tracking 28052 objects as of 22-Sep-2023
HD Live streaming from Space Station
objects crossing your sky now

DELTA 1 DEB

Track DELTA 1 DEB now!
10-day predictions


NORAD ID: 10748
Int'l Code: 1976-077AV
Perigee: 1,499.3 km
Apogee: 1,616.7 km
Inclination: 102.3 °
Period: 117.1 minutes
Semi major axis: 7928 km
RCS: 0.0952 m2 (small)
Launch date: July 29, 1976
Source: United States (US)
Launch site: AIR FORCE WESTERN TEST RANGE (AFWTR)

Note: This is SATELLITE DEBRIS
Your satellite tracking list
Your tracking list is empty




NASA's NSSDC Master Catalog

Two Line Element Set (TLE):
1 10748U 76077AV  23264.83461021  .00000014  00000-0  49846-3 0  9998
2 10748 102.3499 233.7602 0073996  76.0133 349.5164 12.29637248115875
Source of the keplerian elements: AFSPC